Simultaneous Nadir Overpasses (SNOs) Predictions

Prediction of SNOs between FY3D and AQUA Satellite Orbit:

Table of predicted SNOs for the next 14.0 days since TLE Epoch: 3/26/2022
Index Date (FY3D) Time (FY3D) Lat,Lon (FY3D) SZA (FY3D ) Date (AQUA) Time (AQUA) Lat,Lon (AQUA) SZA (AQUA ) Distance(km) Time Diff (sec)
1 03/27/2022 09:48:57 -74.67,-154.82 107.89 03/27/2022 09:49:36 -74.67,-154.80 107.90 0.73 39
2 03/27/2022 10:39:11 73.04, 16.48 70.34 03/27/2022 10:38:32 73.04, 16.49 70.34 0.31 39
3 03/30/2022 01:15:58 74.27, 154.48 70.64 03/30/2022 01:16:21 74.28, 154.45 70.64 0.87 23
4 03/30/2022 02:06:05 -72.42, -33.97 111.36 03/30/2022 02:05:11 -72.43, -34.04 111.34 2.60 54
5 04/01/2022 16:43:01 -74.10, 103.16 110.58 04/01/2022 16:43:08 -74.11, 103.15 110.58 0.32 7
6 04/01/2022 17:33:13 72.35, -85.61 67.55 04/01/2022 17:32:02 72.35, -85.61 67.56 0.11 71
7 04/04/2022 07:19:48 -75.30,-119.22 110.27 04/04/2022 07:20:56 -75.29,-119.19 110.29 1.07 68
8 04/04/2022 08:10:06 73.91, 51.87 68.19 04/04/2022 08:09:56 73.91, 51.89 68.19 0.58 10
9 04/06/2022 22:46:49 74.99,-170.06 68.37 04/06/2022 22:47:40 74.98,-170.06 68.36 0.30 51



Historial Predications of SNOs between FY3D and AQUA
